[[{"header":{"parameterUnit":"m.s-1","parameterCategory":1,"la1":30.2991,"la2":30.254,"lo1":-89.0895,"lo2":-89.0444,"dy":0.0017,"dx":0.0017,"nx":28,"ny":28,"refTime":"2024-08-11T09:00:00:Z","depth":0,"parameterNumber":2,"parameterNumberName":"U-component_of_WINDS"},"data":[0,0,0,0,0,0,0,0,0,0,0,0,0,0,0,0,0,0,0,0,0,0,0,0,0,0,0,0,0,0,0,0,0,0,0,0,0,0,0,0,0,0,0,0,0,0,0,0,0,0,0,0,0,0,0,0,0,0,3.5059,3.506,0,3.5163,3.5164,3.5165,3.511,3.5107,3.5104,3.5102,3.5208,3.5213,3.5219,0,0,0,0,0,0,0,0,0,0,0,0,0,3.4809,3.4814,3.5059,3.506,3.5061,3.5163,3.5164,3.5166,3.5111,3.5107,3.5104,3.5101,3.5206,3.5213,3.5219,0,0,0,0,0,0,0,0,0,0,0,0,0,3.4916,3.4816,3.5058,3.5046,3.5046,3.5163,3.5164,3.5166,3.5111,3.5107,3.5103,3.5099,3.5204,3.5212,3.522,3.5355,0,0,3.5245,3.5249,0,0,0,0,0,0,0,0,3.491,3.4925,3.5047,3.5047,3.5047,3.5119,3.5115,3.5229,3.5112,3.5087,3.5102,3.5097,3.5182,3.5192,3.522,3.536,3.5365,3.5246,3.5251,3.5254,3.5257,0,0,0,0,0,0,0,3.4903,3.492,3.51,3.5048,3.5049,3.5034,3.5045,3.5137,3.5157,3.5088,3.5085,3.5098,3.5181,3.5213,3.5223,3.5366,3.5246,3.5253,3.5258,3.5261,3.5618,3.5623,0,0,0,0,0,0,3.4896,3.4915,3.5097,3.5103,3.4967,3.5042,3.5054,3.51,3.5155,3.516,3.5101,3.5095,3.5201,3.5213,3.5226,3.5385,3.5254,3.5262,3.5267,3.5614,3.5619,3.5624,0,0,0,0,0,0,3.4891,3.4913,3.5092,3.5008,3.503,3.5051,3.5104,3.5105,3.5136,3.5165,3.5168,3.513,3.5198,3.5215,3.5323,3.5388,3.5266,3.5273,3.5608,3.5616,3.5622,3.5707,0,0,0,0,0,0,3.4884,3.4912,3.4964,3.501,3.5034,3.5188,3.5108,3.511,3.515,3.5143,3.5193,3.5197,3.5196,3.5311,3.5331,3.5397,3.5279,3.5603,3.5612,3.562,3.5698,3.5716,3.5731,0,0,0,0,0,3.4875,3.4984,3.4967,3.4989,3.51,3.5192,3.5206,3.5203,3.5156,3.5208,3.5226,3.5195,3.5378,3.5322,3.5344,3.5415,3.5598,3.5609,3.5619,3.5691,3.5712,3.573,0,0,0,0,0,0,3.4946,3.499,3.4971,3.5098,3.5142,3.5183,3.5248,3.5226,3.5285,3.5275,3.5268,3.528,3.5392,3.5414,3.5351,3.5546,3.5481,3.5496,3.5528,3.5548,3.5564,3.5556,3.5286,0,0,0,0,0,3.4976,3.5047,3.5082,3.519,3.5213,3.5227,3.5267,3.5261,3.5306,3.5324,3.535,3.5395,3.5462,3.5507,3.557,3.5701,3.571,3.576,3.5776,3.5789,3.5802,3.5871,3.5893,3.5658,3.5658,3.5658,0,0,3.5039,3.5072,3.5118,3.5205,3.5238,3.5311,3.5243,3.5324,3.5378,3.5336,3.5439,3.546,3.551,3.5629,3.5683,3.5651,3.5869,3.5803,3.5813,3.5819,3.5883,3.5906,3.5925,3.5665,3.5664,3.5663,0,0,3.5191,3.5224,3.5317,3.5351,3.5402,3.541,3.5432,3.5477,3.5489,3.5592,3.5562,3.5625,3.5742,3.5777,3.5811,3.5974,3.5947,3.5995,3.6079,3.6146,3.6165,3.6181,3.6237,3.6258,3.6008,3.6008,3.6008,0,3.5263,3.5373,3.5367,3.545,3.5488,3.5453,3.5546,3.558,3.5649,3.5676,3.5639,3.5783,3.5814,3.594,3.5979,3.6008,3.6032,3.5989,3.6162,3.6179,3.6194,3.6247,3.6269,3.6013,3.6013,3.6012,3.6012,0,3.5457,3.5534,3.5602,3.5669,3.5716,3.5803,3.581,3.5857,3.5846,3.5858,3.5962,3.5998,3.6067,3.6097,3.6087,3.6221,3.6199,3.6163,3.6096,3.6222,3.6271,3.6292,3.6021,3.6019,3.6018,3.6016,0,0,3.5657,3.5719,3.5744,3.5773,3.5825,3.5884,3.5969,3.6036,3.6076,3.6124,3.6194,3.6293,3.6259,3.6297,3.6291,3.635,3.6474,3.6305,3.6306,3.6334,3.662,3.6646,3.667,3.6456,3.646,3.6464,3.6616,0,3.5812,3.596,3.5957,3.6095,3.6164,3.6131,3.6204,3.6244,3.6257,3.6317,3.6331,3.64,3.6351,3.6373,3.643,3.6447,3.6531,3.6436,3.652,3.6523,3.6507,3.6697,3.6725,3.6867,3.6635,3.6639,3.6641,0,3.6012,3.6066,3.621,3.6251,3.6279,3.6346,3.6406,3.6464,3.6508,3.6512,3.6554,3.6538,3.6623,3.6555,3.667,3.6606,3.664,3.6653,3.6659,3.6665,3.6589,3.6707,3.6912,3.6933,3.6672,3.667,3.6668,0,3.6141,3.625,3.635,3.6376,3.6426,3.6473,3.6496,3.6535,3.6575,3.6627,3.6652,3.6714,3.6748,3.6795,3.6796,3.6747,3.6912,3.6845,3.6917,3.6917,3.6953,3.695,3.7165,3.6978,3.6977,3.6977,3.6977,0,3.6312,3.6402,3.6408,3.6469,3.6568,3.6562,3.6659,3.6678,3.6712,3.6776,3.6751,3.6811,3.6809,3.687,3.6871,3.6965,3.6981,3.6986,3.6985,3.6987,3.6987,3.7009,3.6998,3.6983,3.6981,3.698,3.6979,0,3.6473,3.6481,3.6587,3.6625,3.6637,3.6707,3.6739,3.6797,3.6807,3.6887,3.6906,3.6921,3.6991,3.6996,3.7077,3.7078,3.7191,3.718,3.7177,3.7174,3.7245,3.7238,3.7481,3.7511,3.7306,3.7308,3.7309,0,3.6582,3.6649,3.6694,3.6734,3.676,3.6826,3.6866,3.6862,3.6905,3.6958,3.7009,3.7076,3.7129,3.7242,3.726,3.7321,3.731,3.7391,3.7319,3.7319,3.7309,3.7304,3.731,3.7405,3.7407,3.7409,3.741,0,3.6773,3.6773,3.6832,3.6891,3.694,3.6987,3.703,3.7065,3.7066,3.7115,3.7186,3.7227,3.7308,3.7375,3.7434,3.7456,3.7433,3.7433,3.7452,3.7455,3.7449,3.7451,3.7213,3.7427,3.7425,3.7424,3.7423,3.7422,3.691,3.6967,3.7007,3.7072,3.7105,3.7146,3.7201,3.7217,3.7276,3.7341,3.7336,3.7413,3.7453,3.753,3.7557,3.7616,3.7589,3.7618,3.7625,3.7632,3.7638,3.7441,3.7628,3.7627,3.7627,3.7626,3.7626,0,3.7098,3.7121,3.7182,3.7243,3.7294,3.7267,3.7314,3.7358,3.7426,3.7465,3.7518,3.7597,3.7661,3.7683,3.7745,3.7788,3.7779,3.7804,3.78,3.7805,3.7661,3.7636,3.781,3.781,3.781,3.781,3.781,3.781,3.7202,3.7297,3.7301,3.7411,3.7434,3.7509,3.7538,3.7575,3.7605,3.7695,3.7748,3.7762,3.7793,3.7856,3.7913,3.7917,3.794,3.797,3.797,3.7834,3.7816,3.7798,3.7775,3.7976,3.7976,3.811,3.8111,3.8112]},{"header":{"parameterUnit":"m.s-1","parameterCategory":1,"la1":30.2991,"la2":30.254,"lo1":-89.0895,"lo2":-89.0444,"dy":0.0017,"dx":0.0017,"nx":28,"ny":28,"refTime":"2024-08-11T09:00:00:Z","depth":0,"parameterNumber":3,"parameterNumberName":"V-component_of_WINDS"},"data":[0,0,0,0,0,0,0,0,0,0,0,0,0,0,0,0,0,0,0,0,0,0,0,0,0,0,0,0,0,0,0,0,0,0,0,0,0,0,0,0,0,0,0,0,0,0,0,0,0,0,0,0,0,0,0,0,0,0,0.3328,0.3329,0,0.3342,0.3343,0.3343,0.3332,0.3332,0.3331,0.3331,0.3347,0.3348,0.3349,0,0,0,0,0,0,0,0,0,0,0,0,0,0.3293,0.3294,0.3328,0.3329,0.3329,0.3342,0.3343,0.3343,0.3332,0.3332,0.3331,0.3331,0.3347,0.3348,0.3349,0,0,0,0,0,0,0,0,0,0,0,0,0,0.3308,0.3294,0.3328,0.3325,0.3325,0.3342,0.3343,0.3343,0.3333,0.3332,0.3331,0.333,0.3346,0.3348,0.3349,0.3371,0,0,0.3353,0.3353,0,0,0,0,0,0,0,0,0.3307,0.331,0.3326,0.3325,0.3325,0.3335,0.3336,0.3352,0.3333,0.333,0.3331,0.333,0.3344,0.3345,0.3349,0.3371,0.3372,0.3353,0.3354,0.3354,0.3355,0,0,0,0,0,0,0,0.3306,0.3309,0.3334,0.3326,0.3326,0.3323,0.3325,0.3339,0.3341,0.333,0.3329,0.3331,0.3343,0.3348,0.335,0.3372,0.3353,0.3354,0.3355,0.3355,0.3412,0.3413,0,0,0,0,0,0,0.3305,0.3308,0.3334,0.3334,0.3314,0.3324,0.3326,0.3333,0.334,0.3341,0.3331,0.333,0.3346,0.3348,0.335,0.3376,0.3354,0.3356,0.3356,0.3411,0.3412,0.3413,0,0,0,0,0,0,0.3305,0.3308,0.3333,0.3321,0.3324,0.3326,0.3333,0.3333,0.3338,0.3341,0.3342,0.3336,0.3346,0.3348,0.3365,0.3376,0.3356,0.3357,0.341,0.3411,0.3412,0.3427,0,0,0,0,0,0,0.3304,0.3308,0.3316,0.3321,0.3325,0.3348,0.3334,0.3334,0.334,0.3339,0.3346,0.3346,0.3345,0.3363,0.3367,0.3377,0.3358,0.3409,0.3411,0.3412,0.3426,0.3429,0.3431,0,0,0,0,0,0.3303,0.332,0.3316,0.332,0.3335,0.3349,0.3351,0.3349,0.3341,0.3349,0.3351,0.3346,0.3374,0.3365,0.3369,0.338,0.3409,0.341,0.3412,0.3425,0.3428,0.3431,0,0,0,0,0,0,0.3317,0.3321,0.3317,0.3337,0.3342,0.3347,0.3357,0.3353,0.3361,0.336,0.3358,0.3359,0.3377,0.338,0.337,0.3401,0.339,0.3393,0.3399,0.3402,0.3404,0.3404,0.3359,0,0,0,0,0,0.3323,0.3333,0.3336,0.3353,0.3356,0.3356,0.3362,0.336,0.3366,0.3368,0.3372,0.3378,0.3388,0.3395,0.3405,0.3426,0.3427,0.3435,0.3438,0.344,0.3442,0.3453,0.3457,0.3418,0.3418,0.3418,0,0,0.3334,0.3337,0.3344,0.3356,0.336,0.3371,0.3358,0.337,0.3378,0.337,0.3386,0.3389,0.3396,0.3415,0.3423,0.3418,0.3453,0.3442,0.3444,0.3445,0.3455,0.3459,0.3462,0.3419,0.3419,0.3419,0,0,0.3361,0.3364,0.3379,0.3382,0.3388,0.3388,0.3391,0.3396,0.3397,0.3413,0.3407,0.3416,0.3434,0.3439,0.3444,0.347,0.3466,0.3473,0.3488,0.3498,0.3501,0.3504,0.3513,0.3516,0.3476,0.3476,0.3476,0,0.3375,0.339,0.3387,0.3399,0.3404,0.3396,0.341,0.3414,0.3423,0.3427,0.3421,0.3442,0.3446,0.3466,0.3472,0.3476,0.348,0.3473,0.3501,0.3503,0.3506,0.3515,0.3518,0.3477,0.3476,0.3476,0.3476,0,0.3407,0.3418,0.3429,0.3436,0.3442,0.3456,0.3454,0.3461,0.3458,0.3458,0.3474,0.3478,0.3488,0.3492,0.349,0.3511,0.3508,0.3501,0.349,0.3511,0.3519,0.3522,0.3478,0.3477,0.3477,0.3477,0,0,0.3445,0.3449,0.3453,0.3456,0.3461,0.3469,0.3482,0.3491,0.3496,0.3502,0.3513,0.3527,0.352,0.3526,0.3524,0.3533,0.3553,0.3525,0.3525,0.353,0.3576,0.3581,0.3585,0.3549,0.355,0.355,0.3575,0,0.3472,0.3493,0.3489,0.351,0.352,0.3511,0.3522,0.3526,0.3526,0.3535,0.3535,0.3545,0.3536,0.3539,0.3547,0.3549,0.3562,0.3547,0.3559,0.356,0.3558,0.3589,0.3595,0.3619,0.3579,0.3579,0.358,0,0.3506,0.3512,0.3534,0.3536,0.354,0.355,0.3557,0.3565,0.3569,0.3568,0.3573,0.3569,0.3582,0.357,0.3586,0.3576,0.3581,0.3582,0.3583,0.3584,0.3571,0.3592,0.3626,0.363,0.3585,0.3584,0.3584,0,0.3532,0.3545,0.3559,0.3562,0.3565,0.3572,0.3574,0.3577,0.3582,0.3588,0.3592,0.3599,0.3604,0.361,0.3608,0.3599,0.3625,0.3613,0.3625,0.3625,0.3632,0.3631,0.3667,0.3634,0.3634,0.3634,0.3634,0,0.3562,0.3576,0.3571,0.3579,0.3594,0.3589,0.3604,0.3604,0.3607,0.3616,0.3609,0.3618,0.3614,0.3622,0.3621,0.3635,0.3637,0.3637,0.3636,0.3638,0.3638,0.3641,0.364,0.3635,0.3635,0.3634,0.3634,0,0.3594,0.3591,0.3606,0.3606,0.3607,0.3618,0.3618,0.3627,0.3626,0.3637,0.3639,0.3638,0.3647,0.3645,0.3656,0.3654,0.3672,0.3669,0.367,0.367,0.3682,0.3681,0.3721,0.3726,0.369,0.369,0.369,0,0.3614,0.3623,0.3625,0.363,0.3632,0.364,0.3645,0.364,0.3645,0.365,0.3657,0.3665,0.3672,0.3687,0.3687,0.3695,0.3692,0.3706,0.3694,0.3694,0.3693,0.3692,0.3693,0.3709,0.3709,0.371,0.371,0,0.3649,0.3647,0.3653,0.3659,0.3665,0.3669,0.3673,0.3678,0.3673,0.3679,0.3688,0.3693,0.3703,0.3711,0.3718,0.372,0.3714,0.3713,0.3717,0.3718,0.3719,0.3719,0.3677,0.3713,0.3713,0.3712,0.3712,0.3712,0.3676,0.3683,0.3685,0.3693,0.3695,0.3698,0.3706,0.3705,0.3712,0.3719,0.3715,0.3725,0.3728,0.3737,0.3739,0.3747,0.3742,0.3746,0.3748,0.3749,0.375,0.3717,0.3748,0.3748,0.3748,0.3748,0.3748,0,0.3711,0.3711,0.3718,0.3723,0.3728,0.3721,0.3725,0.373,0.3739,0.3742,0.3748,0.3757,0.3765,0.3765,0.3772,0.3778,0.3775,0.378,0.378,0.378,0.3755,0.3751,0.3782,0.3782,0.3782,0.3782,0.3782,0.3782,0.373,0.3743,0.374,0.3754,0.3754,0.3763,0.3766,0.3769,0.3771,0.3781,0.3787,0.3787,0.3788,0.3795,0.3802,0.3801,0.3804,0.381,0.3809,0.3785,0.3782,0.3779,0.3775,0.3811,0.3811,0.3834,0.3834,0.3834]}]]